Location: Newark
(50.0336°N, 22.0047°E)
Time: 19:46:44
(UTC+00:00)

Envisat - Pass Details

Date: 30 January 2020
Orbit: 764 x 766 km, 98.1° (Epoch: 19 February)

Event Time Altitude Azimuth Distance (km) Brightness Sun altitude
Rises 17:43:52 0° 214° (SW) 3,223 6.7 -22.8°
Reaches altitude 10° 17:47:07 10° 236° (WSW) 2,303 6.2 -23.3°
Maximum altitude 17:50:07 16° 273° (W) 1,942 6.0 -23.8°
Drops below altitude 10° 17:53:08 10° 310° (NW) 2,313 6.1 -24.3°
Sets 17:56:26 0° 332° (NNW) 3,245 6.6 -24.8°
